| time (UTC) | temp F | wind direction | speed knots | gust knots | rain 1hr in | rain 24hr in | rain mn in | humidity % | barometer mb |
| 20260504110351 | 49 | 124 | 0.0 | 0.0 | 0.00 | 0.00 | 0.00 | 72 | 1016.3 |
| 20260504100309 | 50 | 124 | 0.0 | 0.0 | 0.00 | 0.00 | 0.00 | 71 | 1016.4 |
| 20260504081702 | 48 | 124 | 0.0 | 0.0 | 0.00 | 0.00 | 0.00 | 75 | 1016.3 |
| 20260504081159 | 48 | 124 | 0.0 | 0.0 | 0.00 | 0.00 | 0.00 | 76 | 1016.4 |
| 20260504080655 | 48 | 124 | 0.0 | 0.0 | 0.00 | 0.00 | 0.00 | 77 | 1016.2 |
| 20260504080152 | 48 | 124 | 0.0 | 0.0 | 0.00 | 0.00 | 0.00 | 76 | 1016.4 |
| 20260504070120 | 45 | 124 | 0.0 | 0.0 | 0.00 | 0.00 | 0.00 | 81 | 1016.5 |
| 20260504050508 | 43 | 124 | 0.0 | 0.0 | 0.00 | 0.00 | 0.00 | 80 | 1016.6 |
| 20260504050005 | 43 | 124 | 0.0 | 0.0 | 0.00 | 0.00 | 0.00 | 80 | 1016.7 |
| 20260504045501 | 42 | 124 | 0.0 | 0.0 | 0.00 | 0.00 | 0.00 | 79 | 1016.6 |
| 20260504044957 | 42 | 124 | 0.0 | 0.0 | 0.00 | 0.00 | 0.00 | 81 | 1016.6 |
| 20260504044455 | 42 | 124 | 0.0 | 0.0 | 0.00 | 0.00 | 0.00 | 82 | 1016.5 |
| 20260504043952 | 41 | 124 | 0.0 | 0.0 | 0.00 | 0.00 | 0.00 | 83 | 1016.5 |
| 20260504043449 | 41 | 124 | 0.0 | 0.0 | 0.00 | 0.00 | 0.00 | 82 | 1016.7 |
| 20260504042946 | 41 | 124 | 0.0 | 0.0 | 0.00 | 0.00 | 0.00 | 82 | 1016.7 |
| 20260504042443 | 41 | 124 | 0.0 | 0.0 | 0.00 | 0.00 | 0.00 | 81 | 1016.4 |
| 20260504041940 | 41 | 124 | 0.0 | 0.0 | 0.00 | 0.00 | 0.00 | 81 | 1016.5 |
| 20260504041436 | 41 | 124 | 0.0 | 0.0 | 0.00 | 0.00 | 0.00 | 81 | 1016.5 |
| 20260504040932 | 41 | 124 | 0.0 | 0.0 | 0.00 | 0.00 | 0.00 | 81 | 1016.5 |
| 20260504040430 | 42 | 124 | 0.0 | 0.0 | 0.00 | 0.00 | 0.00 | 81 | 1016.7 |
| 20260504035925 | 42 | 124 | 0.0 | 0.0 | 0.00 | 0.00 | 0.00 | 81 | 1016.6 |
| 20260504035423 | 42 | 124 | 0.0 | 0.0 | 0.00 | 0.00 | 0.00 | 81 | 1016.8 |
| 20260504034919 | 41 | 124 | 0.0 | 0.0 | 0.00 | 0.00 | 0.00 | 83 | 1016.6 |
| 20260504034417 | 41 | 124 | 0.0 | 0.0 | 0.00 | 0.00 | 0.00 | 82 | 1016.4 |
| 20260504033914 | 41 | 124 | 0.0 | 0.0 | 0.00 | 0.00 | 0.00 | 82 | 1016.5 |
| 20260504033412 | 41 | 124 | 0.0 | 0.0 | 0.00 | 0.00 | 0.00 | 82 | 1016.6 |
| 20260504032909 | 42 | 124 | 0.0 | 0.0 | 0.00 | 0.00 | 0.00 | 82 | 1016.5 |
| 20260504032405 | 42 | 124 | 0.0 | 0.0 | 0.00 | 0.00 | 0.00 | 82 | 1016.5 |
| 20260504031902 | 42 | 124 | 0.0 | 0.0 | 0.00 | 0.00 | 0.00 | 81 | 1016.3 |
| 20260504031359 | 42 | 124 | 0.0 | 0.0 | 0.00 | 0.00 | 0.00 | 80 | 1016.4 |
| 20260504030855 | 42 | 124 | 0.0 | 0.0 | 0.00 | 0.00 | 0.00 | 79 | 1016.3 |
| 20260504030353 | 42 | 124 | 0.0 | 0.0 | 0.00 | 0.00 | 0.00 | 79 | 1016.3 |
| 20260504025849 | 43 | 124 | 0.0 | 0.0 | 0.00 | 0.00 | 0.00 | 77 | 1016.3 |
| 20260504025346 | 43 | 124 | 0.0 | 0.0 | 0.00 | 0.00 | 0.00 | 76 | 1016.2 |
| 20260504024843 | 44 | 124 | 0.0 | 0.0 | 0.00 | 0.00 | 0.00 | 76 | 1016.2 |
| 20260504024339 | 44 | 124 | 0.0 | 0.0 | 0.00 | 0.00 | 0.00 | 76 | 1016.1 |
| 20260504023836 | 44 | 124 | 0.0 | 0.0 | 0.00 | 0.00 | 0.00 | 75 | 1016.2 |
| 20260504023333 | 44 | 124 | 0.0 | 0.0 | 0.00 | 0.00 | 0.00 | 75 | 1016.0 |
| 20260504022828 | 43 | 124 | 0.0 | 0.0 | 0.00 | 0.00 | 0.00 | 76 | 1016.0 |
| 20260504022326 | 44 | 124 | 0.0 | 0.0 | 0.00 | 0.00 | 0.00 | 75 | 1016.1 |
| 20260504021822 | 44 | 124 | 0.0 | 0.0 | 0.00 | 0.00 | 0.00 | 74 | 1016.2 |
| 20260504021320 | 44 | 124 | 0.0 | 0.0 | 0.00 | 0.00 | 0.00 | 73 | 1016.2 |
| 20260504020816 | 45 | 124 | 0.0 | 0.0 | 0.00 | 0.00 | 0.00 | 73 | 1016.1 |
| 20260504020313 | 45 | 124 | 0.0 | 0.0 | 0.00 | 0.00 | 0.00 | 72 | 1016.2 |
| 20260504015809 | 45 | 124 | 0.0 | 0.0 | 0.00 | 0.00 | 0.00 | 71 | 1015.9 |
| 20260504015305 | 46 | 124 | 0.0 | 0.0 | 0.00 | 0.00 | 0.00 | 69 | 1015.8 |
| 20260504014801 | 46 | 124 | 0.0 | 0.0 | 0.00 | 0.00 | 0.00 | 68 | 1016.0 |
| 20260504014258 | 46 | 124 | 0.0 | 0.0 | 0.00 | 0.00 | 0.00 | 67 | 1016.0 |
| 20260504013755 | 47 | 124 | 0.0 | 0.0 | 0.00 | 0.00 | 0.00 | 65 | 1016.0 |
| 20260504013253 | 47 | 124 | 0.0 | 0.0 | 0.00 | 0.00 | 0.00 | 65 | 1015.9 |
| 20260504012749 | 48 | 124 | 0.0 | 0.0 | 0.00 | 0.00 | 0.00 | 64 | 1015.8 |
| 20260504012247 | 48 | 124 | 0.0 | 0.0 | 0.00 | 0.00 | 0.00 | 64 | 1015.8 |
| 20260504011744 | 48 | 124 | 0.0 | 0.0 | 0.00 | 0.00 | 0.00 | 63 | 1015.7 |
| 20260504011241 | 48 | 124 | 0.0 | 0.0 | 0.00 | 0.00 | 0.00 | 62 | 1015.7 |
| 20260504010737 | 49 | 124 | 0.0 | 0.0 | 0.00 | 0.00 | 0.00 | 60 | 1015.7 |
| 20260504010232 | 50 | 124 | 0.0 | 0.0 | 0.00 | 0.00 | 0.00 | 57 | 1015.7 |
| 20260504005730 | 50 | 124 | 0.0 | 0.0 | 0.00 | 0.00 | 0.00 | 57 | 1015.9 |
| 20260504005227 | 50 | 124 | 0.0 | 0.0 | 0.00 | 0.00 | 0.00 | 58 | 1015.5 |
| 20260504004724 | 50 | 124 | 0.0 | 0.0 | 0.00 | 0.00 | 0.00 | 57 | 1015.7 |
| 20260504004221 | 51 | 124 | 0.0 | 0.0 | 0.00 | 0.00 | 0.00 | 55 | 1015.6 |
| 20260504003718 | 52 | 124 | 0.0 | 0.0 | 0.00 | 0.00 | 0.00 | 53 | 1015.5 |
| 20260504003215 | 53 | 124 | 0.0 | 0.0 | 0.00 | 0.00 | 0.00 | 51 | 1015.5 |
| 20260504002711 | 53 | 124 | 0.0 | 0.0 | 0.00 | 0.00 | 0.00 | 50 | 1015.5 |
| 20260504002208 | 54 | 124 | 0.0 | 0.0 | 0.00 | 0.00 | 0.00 | 49 | 1015.3 |
| 20260504001706 | 54 | 124 | 0.0 | 0.0 | 0.00 | 0.00 | 0.00 | 48 | 1015.1 |
| 20260504001203 | 55 | 124 | 0.0 | 0.0 | 0.00 | 0.00 | 0.00 | 46 | 1015.2 |
| 20260504000659 | 56 | 124 | 0.0 | 0.0 | 0.00 | 0.00 | 0.00 | 44 | 1015.2 |
| 20260504000157 | 57 | 124 | 0.0 | 0.0 | 0.00 | 0.00 | 0.00 | 41 | 1015.2 |
| 20260503235655 | 58 | 124 | 0.0 | 0.0 | 0.00 | 0.00 | 0.00 | 40 | 1015.1 |
| 20260503235151 | 59 | 124 | 0.0 | 0.0 | 0.00 | 0.00 | 0.00 | 38 | 1015.1 |
| 20260503234649 | 60 | 124 | 0.0 | 0.0 | 0.00 | 0.00 | 0.00 | 37 | 1014.9 |
| 20260503234147 | 60 | 124 | 0.0 | 0.0 | 0.00 | 0.00 | 0.00 | 36 | 1014.7 |
| 20260503233644 | 61 | 124 | 1.7 | 2.6 | 0.00 | 0.00 | 0.00 | 35 | 1014.9 |
| 20260503233139 | 61 | 124 | 1.7 | 1.7 | 0.00 | 0.00 | 0.00 | 35 | 1015.0 |
| 20260503232636 | 62 | 124 | 1.7 | 1.7 | 0.00 | 0.00 | 0.00 | 34 | 1014.9 |
| 20260503232134 | 62 | 124 | 1.7 | 1.7 | 0.00 | 0.00 | 0.00 | 33 | 1014.9 |
| 20260503231632 | 62 | 124 | 1.7 | 1.7 | 0.00 | 0.00 | 0.00 | 34 | 1014.8 |
| 20260503231128 | 62 | 124 | 2.6 | 2.6 | 0.00 | 0.00 | 0.00 | 33 | 1014.9 |
| 20260503230625 | 62 | 124 | 1.7 | 1.7 | 0.00 | 0.00 | 0.00 | 34 | 1014.9 |
| 20260503230122 | 63 | 124 | 1.7 | 2.6 | 0.00 | 0.00 | 0.00 | 32 | 1015.1 |
| 20260503225620 | 63 | 124 | 2.6 | 4.3 | 0.00 | 0.00 | 0.00 | 32 | 1014.9 |
| 20260503225119 | 62 | 124 | 0.0 | 0.0 | 0.00 | 0.00 | 0.00 | 33 | 1014.8 |
| 20260503224617 | 63 | 124 | 2.6 | 2.6 | 0.00 | 0.00 | 0.00 | 33 | 1015.0 |
| 20260503224115 | 62 | 124 | 4.3 | 5.2 | 0.00 | 0.00 | 0.00 | 33 | 1015.0 |
| 20260503223612 | 63 | 124 | 5.2 | 7.0 | 0.00 | 0.00 | 0.00 | 32 | 1015.2 |
| 20260503223108 | 62 | 124 | 2.6 | 4.3 | 0.00 | 0.00 | 0.00 | 32 | 1014.9 |
| 20260503222606 | 63 | 124 | 5.2 | 7.0 | 0.00 | 0.00 | 0.00 | 33 | 1014.9 |
| 20260503222103 | 63 | 124 | 4.3 | 6.1 | 0.00 | 0.00 | 0.00 | 32 | 1014.9 |
| 20260503221602 | 62 | 124 | 6.1 | 7.8 | 0.00 | 0.00 | 0.00 | 33 | 1014.9 |
| 20260503221059 | 63 | 124 | 4.3 | 6.1 | 0.00 | 0.00 | 0.00 | 32 | 1015.1 |
| 20260503220555 | 63 | 124 | 2.6 | 2.6 | 0.00 | 0.00 | 0.00 | 33 | 1014.9 |
| 20260503220052 | 63 | 124 | 5.2 | 6.1 | 0.00 | 0.00 | 0.00 | 33 | 1015.1 |
| 20260503215549 | 63 | 124 | 3.5 | 5.2 | 0.00 | 0.00 | 0.00 | 32 | 1015.1 |
| 20260503215046 | 62 | 124 | 3.5 | 4.3 | 0.00 | 0.00 | 0.00 | 33 | 1015.1 |
| 20260503214544 | 62 | 124 | 6.1 | 7.8 | 0.00 | 0.00 | 0.00 | 33 | 1015.0 |
| 20260503214040 | 63 | 124 | 5.2 | 6.1 | 0.00 | 0.00 | 0.00 | 33 | 1015.2 |
| 20260503213539 | 62 | 124 | 4.3 | 5.2 | 0.00 | 0.00 | 0.00 | 33 | 1015.1 |
| 20260503213035 | 63 | 124 | 4.3 | 7.0 | 0.00 | 0.00 | 0.00 | 33 | 1015.0 |
| 20260503212533 | 63 | 124 | 2.6 | 2.6 | 0.00 | 0.00 | 0.00 | 34 | 1015.0 |
| 20260503212030 | 63 | 124 | 1.7 | 2.6 | 0.00 | 0.00 | 0.00 | 34 | 1014.8 |
| 20260503211527 | 63 | 124 | 3.5 | 5.2 | 0.00 | 0.00 | 0.00 | 34 | 1015.0 |
| 20260503211022 | 63 | 124 | 3.5 | 4.3 | 0.00 | 0.00 | 0.00 | 34 | 1014.9 |
| 20260503210519 | 63 | 124 | 6.1 | 7.8 | 0.00 | 0.00 | 0.00 | 34 | 1015.3 |
| 20260503210015 | 63 | 124 | 4.3 | 6.1 | 0.00 | 0.00 | 0.00 | 34 | 1014.9 |
| 20260503205512 | 62 | 124 | 5.2 | 7.0 | 0.00 | 0.00 | 0.00 | 33 | 1014.9 |
| 20260503205008 | 63 | 124 | 2.6 | 4.3 | 0.00 | 0.00 | 0.00 | 34 | 1015.1 |
| 20260503204506 | 62 | 124 | 6.1 | 7.8 | 0.00 | 0.00 | 0.00 | 34 | 1015.2 |
| 20260503204002 | 62 | 124 | 5.2 | 6.1 | 0.00 | 0.00 | 0.00 | 34 | 1015.1 |
| 20260503203500 | 63 | 124 | 1.7 | 1.7 | 0.00 | 0.00 | 0.00 | 34 | 1015.2 |
| 20260503202956 | 62 | 124 | 6.1 | 8.7 | 0.00 | 0.00 | 0.00 | 35 | 1015.2 |
| 20260503202454 | 62 | 124 | 6.1 | 7.8 | 0.00 | 0.00 | 0.00 | 35 | 1015.5 |
| 20260503201953 | 62 | 124 | 1.7 | 1.7 | 0.00 | 0.00 | 0.00 | 36 | 1015.3 |
| 20260503201450 | 62 | 127 | 3.5 | 5.2 | 0.00 | 0.00 | 0.00 | 36 | 1015.4 |
| 20260503200947 | 61 | 128 | 4.3 | 5.2 | 0.00 | 0.00 | 0.00 | 37 | 1015.4 |
| 20260503200443 | 62 | 126 | 5.2 | 7.0 | 0.00 | 0.00 | 0.00 | 37 | 1015.5 |
| 20260503195940 | 61 | 125 | 7.8 | 8.7 | 0.00 | 0.00 | 0.00 | 37 | 1015.5 |
| 20260503195437 | 59 | 133 | 3.5 | 4.3 | 0.00 | 0.00 | 0.00 | 38 | 1015.6 |
| 20260503194933 | 60 | 131 | 3.5 | 5.2 | 0.00 | 0.00 | 0.00 | 38 | 1015.8 |
| 20260503194431 | 61 | 124 | 4.3 | 5.2 | 0.00 | 0.00 | 0.00 | 37 | 1015.9 |
| 20260503193926 | 61 | 124 | 4.3 | 6.1 | 0.00 | 0.00 | 0.00 | 37 | 1015.9 |
| 20260503193422 | 60 | 125 | 3.5 | 5.2 | 0.00 | 0.00 | 0.00 | 38 | 1016.0 |
| 20260503192917 | 61 | 124 | 4.3 | 6.1 | 0.00 | 0.00 | 0.00 | 38 | 1016.2 |
| 20260503192414 | 61 | 124 | 4.3 | 5.2 | 0.00 | 0.00 | 0.00 | 37 | 1015.8 |
| 20260503191910 | 60 | 124 | 2.6 | 5.2 | 0.00 | 0.00 | 0.00 | 37 | 1015.8 |
| 20260503191408 | 60 | 124 | 4.3 | 5.2 | 0.00 | 0.00 | 0.00 | 38 | 1016.3 |
| 20260503190904 | 60 | 124 | 1.7 | 1.7 | 0.00 | 0.00 | 0.00 | 37 | 1016.2 |
| 20260503190401 | 60 | 124 | 3.5 | 6.1 | 0.00 | 0.00 | 0.00 | 39 | 1016.4 |
| 20260503185858 | 60 | 124 | 4.3 | 6.1 | 0.00 | 0.00 | 0.00 | 39 | 1016.3 |
| 20260503185354 | 60 | 124 | 2.6 | 2.6 | 0.00 | 0.00 | 0.00 | 39 | 1016.3 |
| 20260503184854 | 60 | 124 | 2.6 | 5.2 | 0.00 | 0.00 | 0.00 | 39 | 1016.4 |
| 20260503184350 | 59 | 124 | 7.0 | 8.7 | 0.00 | 0.00 | 0.00 | 39 | 1016.6 |
| 20260503183846 | 60 | 124 | 4.3 | 6.1 | 0.00 | 0.00 | 0.00 | 39 | 1016.5 |
| 20260503183343 | 59 | 127 | 2.6 | 4.3 | 0.00 | 0.00 | 0.00 | 39 | 1016.6 |
| 20260503182841 | 58 | 127 | 4.3 | 5.2 | 0.00 | 0.00 | 0.00 | 38 | 1016.8 |
| 20260503182340 | 59 | 130 | 7.8 | 8.7 | 0.00 | 0.00 | 0.00 | 39 | 1016.8 |
| 20260503181837 | 58 | 134 | 4.3 | 5.2 | 0.00 | 0.00 | 0.00 | 40 | 1016.7 |
| 20260503181333 | 57 | 137 | 4.3 | 5.2 | 0.00 | 0.00 | 0.00 | 42 | 1016.7 |
| 20260503180830 | 57 | 132 | 2.6 | 4.3 | 0.00 | 0.00 | 0.00 | 40 | 1016.7 |
| 20260503180328 | 59 | 136 | 2.6 | 4.3 | 0.00 | 0.00 | 0.00 | 41 | 1016.7 |
| 20260503175824 | 58 | 130 | 6.1 | 7.8 | 0.00 | 0.00 | 0.00 | 40 | 1016.8 |
| 20260503175322 | 59 | 124 | 6.1 | 7.8 | 0.00 | 0.00 | 0.00 | 38 | 1016.8 |
| 20260503174817 | 59 | 124 | 6.1 | 8.7 | 0.00 | 0.00 | 0.00 | 38 | 1016.9 |
| 20260503174316 | 58 | 124 | 0.9 | 1.7 | 0.00 | 0.00 | 0.00 | 39 | 1016.7 |
| 20260503173811 | 59 | 124 | 5.2 | 7.8 | 0.00 | 0.00 | 0.00 | 40 | 1016.9 |
| 20260503173307 | 58 | 129 | 5.2 | 7.8 | 0.00 | 0.00 | 0.00 | 40 | 1017.0 |
| 20260503172804 | 57 | 125 | 8.7 | 9.6 | 0.00 | 0.00 | 0.00 | 40 | 1016.8 |
| 20260503172304 | 57 | 125 | 4.3 | 5.2 | 0.00 | 0.00 | 0.00 | 41 | 1016.7 |
| 20260503171758 | 57 | 125 | 4.3 | 5.2 | 0.00 | 0.00 | 0.00 | 41 | 1016.8 |
| 20260503171255 | 57 | 124 | 1.7 | 4.3 | 0.00 | 0.00 | 0.00 | 41 | 1017.1 |
| 20260503170752 | 57 | 124 | 2.6 | 2.6 | 0.00 | 0.00 | 0.00 | 40 | 1017.1 |
| 20260503170248 | 57 | 125 | 3.5 | 5.2 | 0.00 | 0.00 | 0.00 | 42 | 1017.2 |
| 20260503160211 | 54 | 124 | 3.5 | 5.2 | 0.00 | 0.00 | 0.00 | 43 | 1017.4 |
| 20260503150641 | 52 | 124 | 5.2 | 6.1 | 0.00 | 0.00 | 0.00 | 44 | 1017.8 |
| 20260503150137 | 52 | 125 | 7.0 | 9.6 | 0.00 | 0.00 | 0.00 | 44 | 1017.8 |
| 20260503131031 | 48 | 124 | 5.2 | 6.1 | 0.00 | 0.00 | 0.00 | 55 | 1018.1 |
| 20260503130528 | 48 | 124 | 5.2 | 7.0 | 0.00 | 0.00 | 0.00 | 54 | 1018.1 |